• In Moldova, Republic
  • List of Countries
  • For 7 days
  • Water Temperature
  • Satellite Maps
  • Weather Map
  • Weather Widgets
  • user-avatar
    Login

    Hourly Weather Brisbane

    Today, 21 August, Monday

    Time Temperature Precipitation Wind Pressure Humidity
    00:00 +11°C° 0 mm 3 mps 764 mmHg 64%
    01:00 +10°C° 0 mm 3 mps 764 mmHg 67%
    02:00 +10°C° 0 mm 3 mps 764 mmHg 70%
    03:00 +9°C° 0 mm 3 mps 763 mmHg 72%
    04:00 +9°C° 0 mm 3 mps 763 mmHg 76%
    05:00 +9°C° 0 mm 3 mps 763 mmHg 76%
    06:00 +9°C° 0 mm 2 mps 764 mmHg 76%
    07:00 +10°C° 0 mm 2 mps 764 mmHg 75%
    08:00 +14°C° 0 mm 2 mps 764 mmHg 67%
    09:00 +18°C° 0 mm 2 mps 764 mmHg 58%
    10:00 +21°C° 0 mm 2 mps 764 mmHg 49%
    11:00 +23°C° 0 mm 2 mps 763 mmHg 46%
    12:00 +24°C° 0 mm 2 mps 763 mmHg 42%
    13:00 +24°C° 0 mm 2 mps 762 mmHg 39%
    14:00 +24°C° 0 mm 2 mps 762 mmHg 43%
    15:00 +22°C° 0 mm 3 mps 762 mmHg 47%
    16:00 +22°C° 0 mm 3 mps 762 mmHg 50%
    17:00 +20°C° 0 mm 3 mps 762 mmHg 59%
    18:00 +19°C° 0 mm 3 mps 762 mmHg 67%
    19:00 +17°C° 0 mm 4 mps 763 mmHg 75%
    20:00 +17°C° 0 mm 3 mps 763 mmHg 76%
    21:00 +17°C° 0 mm 3 mps 763 mmHg 77%
    22:00 +17°C° 0 mm 3 mps 763 mmHg 78%
    23:00 +16°C° 0 mm 3 mps 763 mmHg 80%

    Tomorrow, 22 August, Tuesday

    Time Temperature Precipitation Wind Pressure Humidity
    00:00 +16°C° 0 mm 3 mps 763 mmHg 82%
    01:00 +14°C° 0 mm 3 mps 763 mmHg 83%
    02:00 +14°C° 0 mm 3 mps 763 mmHg 85%
    03:00 +13°C° 0 mm 3 mps 762 mmHg 86%
    04:00 +13°C° 0 mm 3 mps 762 mmHg 87%
    05:00 +13°C° 0 mm 3 mps 762 mmHg 87%
    06:00 +13°C° 0 mm 3 mps 763 mmHg 86%
    07:00 +14°C° 0 mm 3 mps 763 mmHg 85%
    08:00 +17°C° 0 mm 3 mps 763 mmHg 75%
    09:00 +20°C° 0 mm 4 mps 763 mmHg 64%
    10:00 +23°C° 0 mm 4 mps 763 mmHg 54%
    11:00 +25°C° 0 mm 4 mps 762 mmHg 47%
    12:00 +27°C° 0 mm 4 mps 761 mmHg 40%
    13:00 +29°C° 0 mm 4 mps 761 mmHg 33%
    14:00 +28°C° 0 mm 5 mps 760 mmHg 36%
    15:00 +27°C° 0 mm 5 mps 760 mmHg 40%
    16:00 +26°C° 0 mm 5 mps 760 mmHg 44%
    17:00 +25°C° 0.1 mm 5 mps 760 mmHg 50%
    18:00 +22°C° 0.1 mm 5 mps 761 mmHg 57%
    19:00 +21°C° 0.1 mm 5 mps 761 mmHg 63%
    20:00 +20°C° 0 mm 5 mps 762 mmHg 66%
    21:00 +19°C° 0 mm 5 mps 762 mmHg 68%
    22:00 +18°C° 0 mm 4 mps 762 mmHg 71%
    23:00 +17°C° 0 mm 4 mps 762 mmHg 71%

    Day after tomorrow, 23 August, Wednesday

    Time Temperature Precipitation Wind Pressure Humidity
    00:00 +15°C° 0 mm 4 mps 762 mmHg 71%
    01:00 +15°C° 0 mm 4 mps 762 mmHg 71%
    02:00 +14°C° 0 mm 3 mps 762 mmHg 69%
    03:00 +13°C° 0 mm 3 mps 762 mmHg 68%
    04:00 +13°C° 0 mm 3 mps 762 mmHg 66%
    05:00 +14°C° 0 mm 2 mps 763 mmHg 65%
    06:00 +14°C° 0 mm 2 mps 763 mmHg 64%
    07:00 +14°C° 0 mm 2 mps 764 mmHg 63%
    08:00 +18°C° 0 mm 2 mps 763 mmHg 52%
    09:00 +22°C° 0 mm 1 mps 763 mmHg 42%
    10:00 +26°C° 0 mm 1 mps 763 mmHg 31%
    11:00 +27°C° 0 mm 1 mps 762 mmHg 28%
    12:00 +28°C° 0 mm 2 mps 761 mmHg 25%
    13:00 +30°C° 0 mm 2 mps 761 mmHg 21%
    14:00 +29°C° 0 mm 2 mps 760 mmHg 24%
    15:00 +29°C° 0 mm 3 mps 760 mmHg 28%
    16:00 +28°C° 0 mm 4 mps 760 mmHg 31%
    17:00 +26°C° 0 mm 3 mps 760 mmHg 42%
    18:00 +22°C° 0 mm 3 mps 761 mmHg 52%
    19:00 +20°C° 0 mm 3 mps 761 mmHg 63%
    20:00 +19°C° 0 mm 2 mps 761 mmHg 65%
    21:00 +18°C° 0 mm 2 mps 761 mmHg 66%
    22:00 +17°C° 0 mm 2 mps 761 mmHg 68%
    23:00 +17°C° 0 mm 2 mps 761 mmHg 66%

    24 August, Thursday

    Time Temperature Precipitation Wind Pressure Humidity
    00:00 +16°C° 0 mm 2 mps 761 mmHg 65%
    01:00 +16°C° 0 mm 2 mps 761 mmHg 64%
    02:00 +15°C° 0 mm 2 mps 760 mmHg 61%
    03:00 +15°C° 0 mm 2 mps 760 mmHg 57%
    04:00 +15°C° 0 mm 2 mps 760 mmHg 54%
    05:00 +15°C° 0 mm 2 mps 760 mmHg 52%
    06:00 +15°C° 0 mm 2 mps 761 mmHg 51%
    07:00 +15°C° 0 mm 2 mps 761 mmHg 49%
    08:00 +18°C° 0 mm 2 mps 761 mmHg 42%
    09:00 +21°C° 0 mm 2 mps 761 mmHg 34%
    10:00 +26°C° 0 mm 2 mps 761 mmHg 27%
    11:00 +27°C° 0 mm 2 mps 760 mmHg 25%
    12:00 +28°C° 0 mm 2 mps 759 mmHg 24%
    13:00 +29°C° 0 mm 3 mps 758 mmHg 22%
    14:00 +29°C° 0 mm 3 mps 758 mmHg 23%
    15:00 +28°C° 0 mm 3 mps 758 mmHg 25%
    16:00 +27°C° 0 mm 4 mps 758 mmHg 27%
    17:00 +25°C° 0 mm 3 mps 758 mmHg 33%
    18:00 +23°C° 0 mm 2 mps 759 mmHg 39%
    19:00 +19°C° 0 mm 2 mps 760 mmHg 46%
    20:00 +18°C° 0 mm 2 mps 760 mmHg 46%
    21:00 +18°C° 0 mm 3 mps 760 mmHg 47%
    22:00 +17°C° 0 mm 3 mps 761 mmHg 48%
    23:00 +16°C° 0 mm 3 mps 761 mmHg 49%

    25 August, Friday

    Time Temperature Precipitation Wind Pressure Humidity
    00:00 +14°C° 0 mm 3 mps 760 mmHg 50%
    01:00 +14°C° 0 mm 3 mps 760 mmHg 52%
    02:00 +13°C° 0 mm 3 mps 760 mmHg 54%
    03:00 +13°C° 0 mm 3 mps 760 mmHg 57%
    04:00 +12°C° 0 mm 3 mps 760 mmHg 60%
    05:00 +12°C° 0 mm 3 mps 761 mmHg 58%
    06:00 +12°C° 0 mm 3 mps 761 mmHg 57%
    07:00 +12°C° 0 mm 3 mps 762 mmHg 55%
    08:00 +16°C° 0 mm 3 mps 762 mmHg 44%
    09:00 +19°C° 0 mm 3 mps 762 mmHg 33%
    10:00 +21°C° 0 mm 3 mps 762 mmHg 22%
    11:00 +22°C° 0 mm 3 mps 761 mmHg 19%
    12:00 +25°C° 0 mm 2 mps 760 mmHg 15%
    13:00 +26°C° 0 mm 2 mps 760 mmHg 11%
    14:00 +25°C° 0 mm 3 mps 760 mmHg 13%
    15:00 +25°C° 0 mm 3 mps 760 mmHg 16%
    16:00 +25°C° 0 mm 3 mps 760 mmHg 18%
    17:00 +21°C° 0 mm 3 mps 760 mmHg 31%
    18:00 +18°C° 0 mm 3 mps 761 mmHg 44%
    19:00 +15°C° 0 mm 4 mps 762 mmHg 57%
    20:00 +14°C° 0.1 mm 3 mps 762 mmHg 62%
    21:00 +13°C° 0.1 mm 3 mps 762 mmHg 67%
    22:00 +14°C° 0.1 mm 2 mps 763 mmHg 72%
    23:00 +12°C° 0 mm 3 mps 763 mmHg 72%

    26 August, Saturday

    Time Temperature Precipitation Wind Pressure Humidity
    00:00 +12°C° 0 mm 3 mps 763 mmHg 72%
    01:00 +11°C° 0 mm 3 mps 763 mmHg 73%
    02:00 +11°C° 0 mm 3 mps 763 mmHg 73%
    03:00 +10°C° 0 mm 3 mps 763 mmHg 73%
    04:00 +10°C° 0 mm 2 mps 763 mmHg 74%
    05:00 +10°C° 0 mm 2 mps 764 mmHg 72%
    06:00 +10°C° 0 mm 2 mps 764 mmHg 70%
    07:00 +12°C° 0 mm 2 mps 764 mmHg 68%
    08:00 +15°C° 0 mm 2 mps 764 mmHg 58%
    09:00 +18°C° 0 mm 2 mps 764 mmHg 48%
    10:00 +22°C° 0 mm 1 mps 764 mmHg 38%
    11:00 +24°C° 0 mm 1 mps 763 mmHg 33%
    12:00 +25°C° 0 mm 1 mps 762 mmHg 29%
    13:00 +27°C° 0 mm 1 mps 762 mmHg 24%
    14:00 +26°C° 0 mm 2 mps 762 mmHg 26%
    15:00 +25°C° 0 mm 2 mps 761 mmHg 27%
    16:00 +24°C° 0 mm 3 mps 761 mmHg 29%
    17:00 +21°C° 0 mm 3 mps 762 mmHg 40%
    18:00 +19°C° 0 mm 2 mps 762 mmHg 51%
    19:00 +16°C° 0 mm 2 mps 763 mmHg 62%
    20:00 +16°C° 0 mm 2 mps 763 mmHg 68%
    21:00 +15°C° 0 mm 1 mps 763 mmHg 73%
    22:00 +14°C° 0 mm 1 mps 764 mmHg 79%
    23:00 +14°C° 0 mm 1 mps 764 mmHg 80%
    Show more